Austin, MN

5:20 PM CDT on May 20, 2018 (GMT -0500)
Austin Municipal

Weather History for KAUM - January, 2013

Change the Weather History Date:

Tuesday, January 8, 2013

  Actual Average Record
Temperature  
Mean Temperature 32 °F -  
Max Temperature 35 °F 22 °F 53 °F (2002)
Min Temperature 28 °F 9 °F -11 °F (2014)
Degree Days  
Heating Degree Days 34    
Moisture  
Dew Point 27 °F    
Average Humidity 79    
Maximum Humidity 86    
Minimum Humidity 75    
Precipitation  
Precipitation 0.00 in - - ()
Sea Level Pressure  
Sea Level Pressure 29.89 in    
Wind  
Wind Speed 4 mph (SSW)    
Max Wind Speed 16 mph    
Max Gust Speed 22 mph    
Visibility 6 miles    
Events Fog    
Averages and records for this station are not official NWS values.
T = Trace of Precipitation, MM = Missing Value Source: NWS Daily Summary

Daily Weather History Graph

Daily Weather History Graph

Search for Another Location

Airport or City:

Astronomy

Jan. 08, 2013 Rise Set
Actual Time 7:44 AM CST 4:52 PM CST
Civil Twilight 7:12 AM CST 5:25 PM CST
Nautical Twilight 6:36 AM CST 6:00 PM CST
Astronomical Twilight 6:01 AM CST 6:35 PM CST
Moon 4:17 AM CST (1/8) 1:55 PM CST (1/8)
Length of Visible Light 10h 12m
Length of Day
9h 08m
Waning Crescent, 13% of the Moon is Illuminated
Jan 8
Waning Crescent
Jan 11
New
Jan 18
First Quarter
Jan 26
Full
Feb 3
Last Quarter

Hourly Weather History & Observations

Time (CST) Temp. Windchill Dew Point Humidity Pressure Visibility Wind Dir Wind Speed Gust Speed Precip Events Conditions
12:15 AM - - - N/A% 29.97 in 0.2 mi Calm Calm - N/A Fog Fog
12:55 AM - - - N/A% 29.97 in 0.5 mi Calm Calm - N/A Fog Fog
1:15 AM - - - N/A% 29.97 in 0.2 mi Calm Calm - N/A Fog Fog
1:35 AM - - - N/A% 29.98 in 0.2 mi Calm Calm - N/A Fog Fog
1:55 AM - - - N/A% 29.98 in 0.2 mi Calm Calm - N/A Fog Fog
2:15 AM - - - N/A% 29.99 in 0.2 mi Calm Calm - N/A Fog Fog
2:35 AM - - - N/A% 29.99 in 0.2 mi Calm Calm - N/A Fog Fog
2:55 AM - - - N/A% 29.98 in 0.2 mi Calm Calm - N/A Fog Fog
3:15 AM - - - N/A% 29.98 in 0.2 mi Calm Calm - N/A Fog Fog
3:35 AM - - - N/A% 29.98 in 0.2 mi Calm Calm - N/A Fog Fog
3:55 AM - - - N/A% 29.97 in 0.2 mi Calm Calm - N/A Fog Fog
4:15 AM - - - N/A% 29.97 in 0.2 mi Calm Calm - N/A Fog Fog
4:35 AM - - - N/A% 29.96 in 0.2 mi Calm Calm - N/A Fog Fog
4:55 AM - - - N/A% 29.96 in 0.2 mi Calm Calm - N/A Fog Fog
5:15 AM - - - N/A% 29.96 in 0.2 mi Calm Calm - N/A Fog Fog
5:36 AM - - - N/A% 29.95 in 0.5 mi Calm Calm - N/A Fog Fog
5:55 AM - - - N/A% 29.95 in 0.5 mi Calm Calm - N/A   Unknown
6:15 AM - - - N/A% 29.96 in 0.5 mi Calm Calm - N/A Fog Fog
6:36 AM - - - N/A% 29.95 in 0.2 mi Calm Calm - N/A Fog Fog
6:55 AM - - - N/A% 29.94 in 0.2 mi Calm Calm - N/A Fog Fog
7:15 AM - - - N/A% 29.94 in 0.2 mi Calm Calm - N/A Fog Fog
7:36 AM - - - N/A% 29.94 in 0.2 mi Calm Calm - N/A Fog Fog
7:55 AM - - - N/A% 29.94 in 0.2 mi Calm Calm - N/A Fog Fog
8:15 AM - - - N/A% 29.94 in 2.5 mi Calm Calm - N/A   Clear
8:35 AM - - - N/A% 29.94 in 4.0 mi Calm Calm - N/A   Clear
8:55 AM - - - N/A% 29.94 in 4.0 mi Calm Calm - N/A   Clear
9:15 AM - - - N/A% 29.93 in 5.0 mi Calm Calm - N/A   Haze
9:35 AM - - - N/A% 29.93 in 5.0 mi Calm Calm - N/A   Haze
9:55 AM - - - N/A% 29.92 in 5.0 mi Calm Calm - N/A   Haze
10:16 AM - - - N/A% 29.92 in 7.0 mi SSE 4.6 mph - N/A   Clear
10:35 AM - - - N/A% 29.91 in 7.0 mi SSE 4.6 mph - N/A   Clear
10:55 AM - - - N/A% 29.90 in 7.0 mi SSE 5.8 mph - N/A   Clear
11:15 AM - - - N/A% 29.88 in 7.0 mi SSE 8.1 mph - N/A   Clear
11:35 AM - - - N/A% 29.87 in 7.0 mi SSE 10.4 mph - N/A   Clear
11:56 AM - - - N/A% 29.85 in 10.0 mi SSE 10.4 mph - N/A   Clear
12:15 PM - - - N/A% 29.84 in 10.0 mi South 9.2 mph - N/A   Clear
12:35 PM - - - N/A% 29.83 in 10.0 mi South 10.4 mph - N/A   Clear
12:56 PM - - - N/A% 29.82 in 10.0 mi SSE 10.4 mph - N/A   Clear
1:15 PM 33.8 °F 26.4 °F 28.4 °F 81% 29.80 in 10.0 mi South 9.2 mph 17.3 mph N/A   Clear
1:56 PM 33.8 °F 23.9 °F 28.4 °F 81% 29.80 in 10.0 mi South 15.0 mph - N/A   Clear
2:15 PM 33.8 °F 24.8 °F 28.4 °F 81% 29.80 in 10.0 mi South 12.7 mph 19.6 mph N/A   Clear
2:35 PM 33.8 °F 24.8 °F 28.4 °F 81% 29.80 in 10.0 mi South 12.7 mph - N/A   Clear
2:56 PM 35.6 °F 26.6 °F 28.4 °F 75% 29.81 in 10.0 mi South 13.8 mph - N/A   Clear
3:15 PM 33.8 °F 23.9 °F 28.4 °F 81% 29.81 in 10.0 mi South 15.0 mph - N/A   Clear
3:35 PM 33.8 °F 23.9 °F 28.4 °F 81% 29.81 in 10.0 mi South 15.0 mph - N/A   Clear
3:56 PM 35.6 °F 26.6 °F 28.4 °F 75% 29.80 in 10.0 mi South 13.8 mph - N/A   Clear
4:15 PM 35.6 °F 26.2 °F 28.4 °F 75% 29.80 in 10.0 mi South 15.0 mph 19.6 mph N/A   Clear
4:35 PM 35.6 °F 26.6 °F 28.4 °F 75% 29.80 in 10.0 mi South 13.8 mph - N/A   Clear
4:56 PM 35.6 °F 26.2 °F 28.4 °F 75% 29.81 in 10.0 mi SSW 15.0 mph - N/A   Clear
5:15 PM 35.6 °F 27.1 °F 28.4 °F 75% 29.81 in 10.0 mi SSW 12.7 mph - N/A   Clear
5:35 PM 35.6 °F 26.6 °F 28.4 °F 75% 29.81 in 10.0 mi SSW 13.8 mph - N/A   Clear
5:56 PM 35.6 °F 26.6 °F 28.4 °F 75% 29.81 in 10.0 mi SSW 13.8 mph - N/A   Clear
6:15 PM 35.6 °F 26.2 °F 28.4 °F 75% 29.80 in 10.0 mi South 15.0 mph - N/A   Clear
6:35 PM 35.6 °F 26.6 °F 28.4 °F 75% 29.81 in 10.0 mi SSW 13.8 mph - N/A   Clear
6:55 PM 35.6 °F 26.2 °F 30.2 °F 81% 29.81 in 10.0 mi SSW 15.0 mph 21.9 mph N/A   Clear
7:15 PM 35.6 °F 26.6 °F 28.4 °F 75% 29.82 in 10.0 mi SW 13.8 mph - N/A   Scattered Clouds
7:55 PM 33.8 °F 23.9 °F 26.6 °F 75% 29.83 in 10.0 mi WSW 15.0 mph 20.7 mph N/A   Scattered Clouds
8:16 PM 32.0 °F 21.2 °F 26.6 °F 80% 29.85 in 10.0 mi WSW 16.1 mph 19.6 mph N/A   Clear
8:35 PM 30.2 °F 20.2 °F 24.8 °F 80% 29.86 in 10.0 mi WSW 12.7 mph 17.3 mph N/A   Clear
8:55 PM 30.2 °F 20.8 °F 24.8 °F 80% 29.87 in 10.0 mi WSW 11.5 mph - N/A   Clear
9:16 PM 30.2 °F 20.8 °F 24.8 °F 80% 29.88 in 10.0 mi West 11.5 mph 17.3 mph N/A   Clear
9:35 PM 30.2 °F 20.2 °F 24.8 °F 80% 29.88 in 10.0 mi WSW 12.7 mph 16.1 mph N/A   Clear
9:55 PM 28.4 °F 19.7 °F 23.0 °F 80% 29.90 in 10.0 mi WSW 9.2 mph - N/A   Clear
10:15 PM 28.4 °F 19.7 °F 23.0 °F 80% 29.90 in 10.0 mi WSW 9.2 mph - N/A   Clear
10:35 PM 28.4 °F 20.4 °F 23.0 °F 80% 29.92 in 10.0 mi West 8.1 mph - N/A   Clear
10:56 PM 28.4 °F 20.4 °F 23.0 °F 80% 29.92 in 10.0 mi WSW 8.1 mph - N/A   Clear
11:15 PM 28.4 °F 20.4 °F 24.8 °F 86% 29.93 in 10.0 mi WSW 8.1 mph - N/A   Clear
11:56 PM 28.4 °F 19.7 °F 24.8 °F 86% 29.96 in 10.0 mi West 9.2 mph - N/A   Clear